Time,TemperatureF,DewpointF,PressureIn,WindDirection,WindDirectionDegrees,WindSpeedMPH,WindSpeedGustMPH,Humidity,HourlyPrecipIn,Conditions,Clouds,dailyrainin,SolarRadiationWatts/m^2,SoftwareType,DateUTC
2013-07-25 00:02:00,61.0,57.0,-100.00,SW,229,2.0,5.0,88,0.00,,,0.00,2.000000,,2013-07-25 08:02:00,
2013-07-25 00:12:00,61.0,57.0,-100.00,SW,229,2.0,5.0,88,0.00,,,0.00,2.000000,,2013-07-25 08:12:00,
2013-07-25 00:22:00,61.0,57.0,-100.00,SW,229,2.0,5.0,88,0.00,,,0.00,2.000000,,2013-07-25 08:22:00,
2013-07-25 00:52:00,59.0,54.0,-100.00,South,176,2.0,3.0,83,0.00,,,0.00,0.000000,,2013-07-25 08:52:00,
2013-07-25 01:02:00,59.0,54.0,-100.00,South,176,2.0,3.0,83,0.00,,,0.00,0.000000,,2013-07-25 09:02:00,
2013-07-25 01:12:00,59.0,54.0,-100.00,South,176,2.0,3.0,83,0.00,,,0.00,0.000000,,2013-07-25 09:12:00,
2013-07-25 01:22:00,59.0,54.0,-100.00,South,176,2.0,3.0,83,0.00,,,0.00,0.000000,,2013-07-25 09:22:00,
2013-07-25 01:53:00,59.0,54.0,-100.00,WSW,251,2.0,3.0,84,0.00,,,0.00,0.000000,,2013-07-25 09:53:00,
2013-07-25 02:02:00,59.0,54.0,-100.00,WSW,251,2.0,3.0,84,0.00,,,0.00,0.000000,,2013-07-25 10:02:00,
2013-07-25 02:12:00,59.0,54.0,-100.00,WSW,251,2.0,3.0,84,0.00,,,0.00,0.000000,,2013-07-25 10:12:00,
2013-07-25 02:22:00,59.0,54.0,-100.00,WSW,251,2.0,3.0,84,0.00,,,0.00,0.000000,,2013-07-25 10:22:00,
2013-07-25 02:53:00,59.0,55.0,-100.00,WSW,239,2.0,4.0,86,0.00,,,0.00,0.000000,,2013-07-25 10:53:00,
2013-07-25 03:02:00,59.0,55.0,-100.00,WSW,239,2.0,4.0,86,0.00,,,0.00,0.000000,,2013-07-25 11:02:00,
2013-07-25 03:12:00,59.0,55.0,-100.00,WSW,239,2.0,4.0,86,0.00,,,0.00,0.000000,,2013-07-25 11:12:00,
2013-07-25 03:22:00,59.0,55.0,-100.00,WSW,239,2.0,4.0,86,0.00,,,0.00,0.000000,,2013-07-25 11:22:00,
2013-07-25 03:52:00,57.0,53.0,-100.00,ESE,121,1.0,2.0,87,0.00,,,0.00,0.000000,,2013-07-25 11:52:00,
2013-07-25 04:02:00,57.0,53.0,-100.00,ESE,121,1.0,2.0,87,0.00,,,0.00,0.000000,,2013-07-25 12:02:00,
2013-07-25 04:12:00,57.0,53.0,-100.00,ESE,121,1.0,2.0,87,0.00,,,0.00,0.000000,,2013-07-25 12:12:00,
2013-07-25 04:22:00,57.0,53.0,-100.00,ESE,121,1.0,2.0,87,0.00,,,0.00,0.000000,,2013-07-25 12:22:00,
2013-07-25 04:53:00,57.0,54.0,-100.00,SE,126,2.0,5.0,90,0.00,,,0.00,0.000000,,2013-07-25 12:53:00,
2013-07-25 05:02:00,57.0,54.0,-100.00,SE,126,2.0,5.0,90,0.00,,,0.00,0.000000,,2013-07-25 13:02:00,
2013-07-25 05:12:00,57.0,54.0,-100.00,SE,126,2.0,5.0,90,0.00,,,0.00,0.000000,,2013-07-25 13:12:00,
2013-07-25 05:22:00,57.0,54.0,-100.00,SE,126,2.0,5.0,90,0.00,,,0.00,0.000000,,2013-07-25 13:22:00,
2013-07-25 06:02:00,59.0,54.0,-100.00,South,188,1.0,3.0,85,0.00,,,0.00,0.000000,,2013-07-25 14:02:00,
2013-07-25 06:12:00,59.0,54.0,-100.00,South,188,1.0,3.0,85,0.00,,,0.00,0.000000,,2013-07-25 14:12:00,
2013-07-25 06:22:00,59.0,54.0,-100.00,South,188,1.0,3.0,85,0.00,,,0.00,0.000000,,2013-07-25 14:22:00,
2013-07-25 06:53:00,59.0,54.0,-100.00,SW,226,2.0,5.0,85,0.00,,,0.00,6.000000,,2013-07-25 14:53:00,
2013-07-25 07:02:00,59.0,54.0,-100.00,SW,226,2.0,5.0,85,0.00,,,0.00,6.000000,,2013-07-25 15:02:00,
2013-07-25 07:12:00,59.0,54.0,-100.00,SW,226,2.0,5.0,85,0.00,,,0.00,6.000000,,2013-07-25 15:12:00,
2013-07-25 07:22:00,59.0,54.0,-100.00,SW,226,2.0,5.0,85,0.00,,,0.00,6.000000,,2013-07-25 15:22:00,
2013-07-25 08:02:00,61.0,55.0,-100.00,South,176,3.0,7.0,81,0.00,,,0.00,27.000000,,2013-07-25 16:02:00,
2013-07-25 08:12:00,61.0,55.0,-100.00,South,176,3.0,7.0,81,0.00,,,0.00,27.000000,,2013-07-25 16:12:00,
2013-07-25 08:22:00,61.0,55.0,-100.00,South,176,3.0,7.0,81,0.00,,,0.00,27.000000,,2013-07-25 16:22:00,
2013-07-25 08:53:00,62.0,57.0,-100.00,ENE,69,2.0,5.0,83,0.00,,,0.00,45.000000,,2013-07-25 16:53:00,
2013-07-25 09:02:00,62.0,57.0,-100.00,ENE,69,2.0,5.0,83,0.00,,,0.00,45.000000,,2013-07-25 17:02:00,
2013-07-25 09:12:00,62.0,57.0,-100.00,ENE,69,2.0,5.0,83,0.00,,,0.00,45.000000,,2013-07-25 17:12:00,
2013-07-25 09:22:00,62.0,57.0,-100.00,ENE,69,2.0,5.0,83,0.00,,,0.00,45.000000,,2013-07-25 17:22:00,
2013-07-25 09:53:00,68.0,65.0,-100.00,WSW,253,2.0,4.0,90,0.00,,,0.00,159.000000,,2013-07-25 17:53:00,
2013-07-25 10:02:00,68.0,65.0,-100.00,WSW,253,2.0,4.0,90,0.00,,,0.00,159.000000,,2013-07-25 18:02:00,
2013-07-25 10:52:00,67.0,59.0,-100.00,NNW,342,3.0,6.0,76,0.00,,,0.00,247.000000,,2013-07-25 18:52:00,
2013-07-25 11:02:00,67.0,59.0,-100.00,NNW,342,3.0,6.0,76,0.00,,,0.00,247.000000,,2013-07-25 19:02:00,
2013-07-25 11:12:00,67.0,59.0,-100.00,NNW,342,3.0,6.0,76,0.00,,,0.00,247.000000,,2013-07-25 19:12:00,
2013-07-25 11:22:00,67.0,59.0,-100.00,NNW,342,3.0,6.0,76,0.00,,,0.00,247.000000,,2013-07-25 19:22:00,
2013-07-25 11:53:00,69.0,61.0,-100.00,SW,225,2.0,6.0,77,0.00,,,0.00,325.000000,,2013-07-25 19:53:00,
2013-07-25 12:02:00,69.0,61.0,-100.00,SW,225,2.0,6.0,77,0.00,,,0.00,325.000000,,2013-07-25 20:02:00,
2013-07-25 12:11:00,69.0,61.0,-100.00,SW,225,2.0,6.0,77,0.00,,,0.00,325.000000,,2013-07-25 20:11:00,
2013-07-25 12:22:00,69.0,61.0,-100.00,SW,225,2.0,6.0,77,0.00,,,0.00,325.000000,,2013-07-25 20:22:00,
2013-07-25 12:53:00,76.0,58.0,-100.00,NNW,347,5.0,9.0,54,0.00,,,0.00,709.000000,,2013-07-25 20:53:00,
2013-07-25 13:02:00,76.0,58.0,-100.00,NNW,347,5.0,9.0,54,0.00,,,0.00,709.000000,,2013-07-25 21:02:00,
2013-07-25 13:12:00,76.0,58.0,-100.00,NNW,347,5.0,9.0,54,0.00,,,0.00,709.000000,,2013-07-25 21:12:00,
2013-07-25 13:22:00,76.0,58.0,-100.00,NNW,347,5.0,9.0,54,0.00,,,0.00,709.000000,,2013-07-25 21:22:00,
2013-07-25 13:52:00,76.0,58.0,-100.00,NNW,339,5.0,9.0,53,0.00,,,0.00,663.000000,,2013-07-25 21:52:00,
2013-07-25 14:02:00,76.0,58.0,-100.00,NNW,339,5.0,9.0,53,0.00,,,0.00,663.000000,,2013-07-25 22:02:00,
2013-07-25 14:12:00,76.0,58.0,-100.00,NNW,339,5.0,9.0,53,0.00,,,0.00,663.000000,,2013-07-25 22:12:00,
2013-07-25 14:22:00,76.0,58.0,-100.00,NNW,339,5.0,9.0,53,0.00,,,0.00,663.000000,,2013-07-25 22:22:00,
2013-07-25 14:52:00,77.0,57.0,-100.00,NNW,347,5.0,9.0,50,0.00,,,0.00,634.000000,,2013-07-25 22:52:00,
2013-07-25 15:02:00,77.0,57.0,-100.00,NNW,347,5.0,9.0,50,0.00,,,0.00,634.000000,,2013-07-25 23:02:00,
2013-07-25 15:12:00,77.0,57.0,-100.00,NNW,347,5.0,9.0,50,0.00,,,0.00,634.000000,,2013-07-25 23:12:00,
2013-07-25 15:22:00,77.0,57.0,-100.00,NNW,347,5.0,9.0,50,0.00,,,0.00,634.000000,,2013-07-25 23:22:00,
2013-07-25 15:52:00,78.0,58.0,-100.00,North,5,5.0,9.0,51,0.00,,,-99.99,726.000000,,2013-07-25 23:52:00,
2013-07-25 16:02:00,78.0,58.0,-100.00,North,5,5.0,9.0,51,0.00,,,-99.99,726.000000,,2013-07-26 00:02:00,
2013-07-25 16:12:00,78.0,58.0,-100.00,North,5,5.0,9.0,51,0.00,,,-99.99,726.000000,,2013-07-26 00:12:00,
2013-07-25 16:22:00,78.0,58.0,-100.00,North,5,5.0,9.0,51,0.00,,,-99.99,726.000000,,2013-07-26 00:22:00,
2013-07-25 16:52:00,79.0,59.0,-100.00,North,2,5.0,9.0,50,0.00,,,0.00,685.000000,,2013-07-26 00:52:00,
2013-07-25 17:02:00,79.0,59.0,-100.00,North,2,5.0,9.0,50,0.00,,,0.00,685.000000,,2013-07-26 01:02:00,
2013-07-25 17:12:00,79.0,59.0,-100.00,North,2,5.0,9.0,50,0.00,,,0.00,685.000000,,2013-07-26 01:12:00,
2013-07-25 17:22:00,79.0,59.0,-100.00,North,2,5.0,9.0,50,0.00,,,0.00,685.000000,,2013-07-26 01:22:00,
2013-07-25 18:02:00,78.0,57.0,-100.00,NNW,331,5.0,11.0,48,0.00,,,0.00,577.000000,,2013-07-26 02:02:00,
2013-07-25 18:12:00,78.0,57.0,-100.00,NNW,331,5.0,11.0,48,0.00,,,0.00,577.000000,,2013-07-26 02:12:00,
2013-07-25 18:22:00,78.0,57.0,-100.00,NNW,331,5.0,11.0,48,0.00,,,0.00,577.000000,,2013-07-26 02:22:00,
2013-07-25 19:02:00,76.0,59.0,-100.00,NNE,13,4.0,10.0,56,0.00,,,0.00,400.000000,,2013-07-26 03:02:00,
2013-07-25 19:12:00,76.0,59.0,-100.00,NNE,13,4.0,10.0,56,0.00,,,0.00,400.000000,,2013-07-26 03:12:00,
2013-07-25 19:22:00,76.0,59.0,-100.00,NNE,13,4.0,10.0,56,0.00,,,0.00,400.000000,,2013-07-26 03:22:00,
2013-07-25 19:53:00,69.0,54.0,-100.00,NNE,28,3.0,9.0,58,-99.99,,,-99.99,271.000000,,2013-07-26 03:53:00,
2013-07-25 20:02:00,69.0,54.0,-100.00,NNE,28,3.0,9.0,58,-99.99,,,-99.99,271.000000,,2013-07-26 04:02:00,
2013-07-25 20:12:00,69.0,54.0,-100.00,NNE,28,3.0,9.0,58,-99.99,,,-99.99,271.000000,,2013-07-26 04:12:00,
2013-07-25 20:22:00,69.0,54.0,-100.00,NNE,28,3.0,9.0,58,-99.99,,,-99.99,271.000000,,2013-07-26 04:22:00,
2013-07-25 20:53:00,68.0,59.0,-100.00,ESE,117,1.0,6.0,72,0.00,,,0.00,120.000000,,2013-07-26 04:53:00,
2013-07-25 21:02:00,68.0,59.0,-100.00,ESE,117,1.0,6.0,72,0.00,,,0.00,120.000000,,2013-07-26 05:02:00,
2013-07-25 21:12:00,68.0,59.0,-100.00,ESE,117,1.0,6.0,72,0.00,,,0.00,120.000000,,2013-07-26 05:12:00,
2013-07-25 21:22:00,68.0,59.0,-100.00,ESE,117,1.0,6.0,72,0.00,,,0.00,120.000000,,2013-07-26 05:22:00,
2013-07-25 21:52:00,64.0,57.0,-100.00,NE,54,2.0,4.0,77,0.00,,,0.00,13.000000,,2013-07-26 05:52:00,
2013-07-25 22:02:00,64.0,57.0,-100.00,NE,54,2.0,4.0,77,0.00,,,0.00,13.000000,,2013-07-26 06:02:00,
2013-07-25 22:12:00,64.0,57.0,-100.00,NE,54,2.0,4.0,77,0.00,,,0.00,13.000000,,2013-07-26 06:12:00,
2013-07-25 22:22:00,64.0,57.0,-100.00,NE,54,2.0,4.0,77,0.00,,,0.00,13.000000,,2013-07-26 06:22:00,
2013-07-25 22:52:00,60.0,58.0,-100.00,SSW,207,1.0,9.0,92,0.00,,,0.00,6.000000,,2013-07-26 06:52:00,
2013-07-25 23:02:00,60.0,58.0,-100.00,SSW,207,1.0,9.0,92,0.00,,,0.00,6.000000,,2013-07-26 07:02:00,
2013-07-25 23:12:00,60.0,58.0,-100.00,SSW,207,1.0,9.0,92,0.00,,,0.00,6.000000,,2013-07-26 07:12:00,
2013-07-25 23:22:00,60.0,58.0,-100.00,SSW,207,1.0,9.0,92,0.00,,,0.00,6.000000,,2013-07-26 07:22:00,
2013-07-25 23:53:00,59.0,58.0,-100.00,ENE,78,1.0,3.0,96,0.00,,,0.00,3.000000,,2013-07-26 07:53:00,